Location: Franzen
(48.6167°N, 15.3833°E)
Time: 06:21:54
(UTC+00:00)

Altair - Pass Details

Date: 06 August 2021
Orbit: 1501 x 1682 km, 47.2° (Epoch: 21 September)

Event Time Altitude Azimuth Distance (km) Brightness Sun altitude
Exits shadow 23:34:23 37° 212° (SSW) 2,241 7.9 -24.6°
Maximum altitude 23:38:11 59° 153° (SSE) 1,747 7.5 -24.5°
Drops below altitude 10° 23:47:11 10° 77° (ENE) 3,674 9.8 -24.3°
Sets 23:50:14 0° 74° (ENE) 4,647 10.4 -24.2°
